Location: Mount Kobau Star Party
(49.1167°N, 119.7333°W)
Time: 04:12:37
(UTC-07:00)

Vanguard 1 Rocket - Pass Details

Date: 17 July 2025
Orbit: 654 x 4213 km, 34.3° (Epoch: 19 April)

Event Time Altitude Azimuth Distance (km) Brightness Sun altitude
Rises 23:41:31 0° 250° (WSW) 6,147 11.6 -17.3°
Reaches altitude 10° 23:46:55 10° 241° (WSW) 4,485 10.8 -17.6°
Maximum altitude 23:55:41 28° 189° (S) 2,264 8.9 -18.1°
Enters shadow 23:57:07 27° 171° (S) 2,181 8.7 -18.1°
